Regional Weather Roundup
Issued by NWS Charleston, SC

Current Version | Previous Version | Text Only | Print | Product List | Glossary Off
Versions: 1 2 3 4 5 6 7 8 9 10 11 12 13 14 15 16 17 18 19 20 21 22 23 24 25 26 27 28 29 30 31 32 33 34 35 36 37 38 39 40 41 42 43 44 45 46 47 48 49 50
000 ASUS42 KCHS 272111 RWRCHS REGIONAL WEATHER ROUNDUP NATIONAL WEATHER SERVICE CHARLESTON SC 400 PM EST FRI FEB 27 2015 NOTE: "FAIR" INDICATES FEW OR NO CLOUDS BELOW 12,000 FEET WITH NO SIGNIFICANT WEATHER AND/OR OBSTRUCTIONS TO VISIBILITY. NOT ALL STATIONS ARE QUALITY CONTROLLED BY THE NATIONAL WEATHER SERVICE. USE DATA WITH CAUTION...ESPECIALLY DEWPOINT OBSERVATIONS. SCZ027-030-031-034>040-042>050-272200- ...SOUTHEAST SOUTH CAROLINA... CITY SKY/WX TMP DP RH WIND PRES REMARKS N CHARLESTON CLOUDY 50 34 54 E10 30.35S WATERFRONT PRK N/A 48 N/A N/A E15 N/A MOUNT PLEASANT FAIR 48 36 61 E3 30.36S PINOPOLIS N/A 54 34 47 MISG 30.27F MONCKS CORNER FAIR 52 32 46 CALM 30.35S SUMMERVILLE FAIR 52 34 50 CALM 30.36S BEAUFORT MCAS CLOUDY 50 36 58 E6 30.34S BEAUFORT ARPT FAIR 48 37 66 CALM 30.35S HILTON HEAD IS PTSUNNY 48 36 61 NE7 30.36S WALTERBORO CLOUDY 52 34 50 CALM 30.35S ALLENDALE FAIR 55 34 44 E7 30.33R ...SOUTHERN MIDLANDS AND PEE DEE... CITY SKY/WX TMP DP RH WIND PRES REMARKS GEORGETOWN NOT AVBL KINGSTREE NOT AVBL ORANGEBURG SUNNY 53 32 44 SW3 30.33S BARNWELL FAIR 55 36 47 N6 30.34R AIKEN FAIR 55 32 41 E3 30.35R MANNING FAIR 54 32 43 N5 30.34S COLUMBIA MOSUNNY 55 31 39 CALM 30.33S SUMTER SUNNY 54 32 44 SE5 30.32S FLORENCE SUNNY 54 29 38 VRB7 30.34F MYRTLE BEACH SUNNY 48 34 57 SE9 30.38S N MYRTLE BEACH PTSUNNY 52 30 43 N6 30.35F $$ GAZ063-065-086>088-099>101-113>116-118-119-134>141-150-272200- ...SOUTHEAST GEORGIA... CITY SKY/WX TMP DP RH WIND PRES REMARKS SAVANNAH ARPT CLOUDY 52 33 48 NE7 30.34S HUNTER AAF CLOUDY 51 36 55 VRB6 30.32R FORT STEWART CLOUDY 52 35 51 VRB3 30.31S STATESBORO CLOUDY 53 37 56 NE3 30.33S SYLVANIA MOCLDY 53 39 58 E5 30.34S CLAXTON FAIR 54 37 54 E9 30.33F ...CSRA...CENTRAL AND FAR SOUTHEAST GEORGIA... CITY SKY/WX TMP DP RH WIND PRES REMARKS THOMSON SUNNY 57 37 47 NW6 30.36S AUGUSTA-BUSH SUNNY 56 32 40 VRB3 30.32S AUGUSTA-DANIEL SUNNY 58 32 37 CALM 30.32S SWAINSBORO FAIR 57 27 30 E5 30.32S VIDALIA PTSUNNY 54 37 54 CALM 30.32F EASTMAN FAIR 58 38 48 NE5 30.33F HAZLEHURST FAIR 55 40 57 N9 30.30F ALMA CLOUDY 53 36 52 VRB6 30.31F WAYCROSS CLOUDY 56 40 54 NE8 30.31S JESUP FAIR 55 37 50 E9 30.32F BAXLEY FAIR 54 37 54 E8 30.31F BRUNSWICK CLOUDY 50 32 50 NE15 30.34S SAINT SIMONS CLOUDY 48 36 63 NE16 30.32F $$ SCZ027-028-034-036>038-045-046-048>050-GAZ119-141-272200- ...LAKE AND SUPPLEMENTAL COASTAL OBSERVATIONS... STATION/POSITION TIME TEMP WIND PRES WAVE SWELL AIR SEA DIR/SP/G HT/PER HT/PER/DIR (UTC) (F) (DEG/KT/KT) (MB) (FT/S) (FT/S/D) UPR LAKE MARION NOT AVBL WINYAH BAY NOT AVBL LAKE MURRAY 2000 51 190/ 5/ 6 1026.4F ACE BASIN NERRS 1945 52 100/ 2 1027.0 FORT PULASKI 2006 47 49 60/ 15/ 19 1027.9F SAPELO ISLAND 2000 49 30/ 12 1027.0S $$ ANZ835-935-AMZ111-154-330-350-352-354-370-450-454-472-272200- ...C-MAN AND BUOY OBSERVATIONS... STATION/POSITION TIME TEMP WIND PRES WAVE SWELL AIR SEA DIR/SP/G HT/PER HT/PER/DIR (UTC) (F) (DEG/KT/KT) (MB) (FT/S) (FT/S/D) BUOY 41004 2050 50 66 30/ 19/ 23 1026.6F 5/10 3/10 BUOY 41008 2050 48 52 40/ 19/ 23 1026.1F 5/ 6 2/100/10 FOLLY BEACH CMAN 2100 46 80/ 13/ 14 1028.3S CAPERS NEARSHORE NOT AVBL FRIPP NEARSHORE 2000 47 80/ 16/ 19 1026.4F STATION/POSITION TIME TEMP WIND PRES WAVE SWELL AIR SEA DIR/SP/G HT/PER HT/PER/DIR (UTC) (F) (DEG/KT/KT) (MB) (FT/S) (FT/S/D) 5E ST. MARYS GA 2021 53 N/A 5/ 5 2/110/11 FRYING PAN BUOY 2050 46 62 40/ 14/ 17 1028.8R 5/ 8 3/130/ 8 BUOY 41025 NOT AVBL CAPE LOOKOUT NC 2100 45 20/ 10/ 12 1028.6R BUOY 41002 2050 63 70 10/ 17/ 21 1023.7R 11/ 9 10/ 20/ 9 BUOY 41010 2020 65 73 30/ 17/ 19 1021.7R ST AUGUSTINE FL 2100 49 360/ 25/ 27 1025.2F $$

USA.gov is the U.S. government's official web portal to all federal, state and local government web resources and services.